Temp
64 61 60 59 59 58 57 57 57 57 58 59 61 62 62 64 66 66 67 69 70 69 70 70 70 71 70 69 66 66 63 62 56 55 58 59 57 58 59 60 61 60 61
61 58 56 56 56 55 55 55 56 55 57 58 59 60 62 63 64 66 67 70 69 69 70 70 70 70 67 65 65 62 59 59 58 53 54 55 57 58 58 58 60 64 61
58 55 54 53 53 53 53 54 55 55 56 57 58 59 60 61 63 65 67 69 69 70 70 69 69 65 62 62 61 58 57 57 56 55 53 57 57 57 57 58 58 57 63
54 53 51 51 51 52 53 53 53 54 54 54 55 57 58 61 63 65 67 67 68 68 66 63 63 61 61 60 59 58 57 57 57 55 54 53 54 56 56 55 54 56 56
50 50 49 50 50 50 51 52 53 53 54 55 54 55 58 61 64 64 65 66 58 55 55 55 55 56 56 57 55 54 54 52 51 49 48 49 51 53 52 53 52 53 54
48 47 48 48 49 49 50 50 50 50 52 56 54 57 60 61 57 54 58 55 54 52 50 51 51 52 51 52 52 52 51 50 48 48 49 50 51 52 52 51 50 48 45
46 47 47 47 46 46 48 48 47 47 48 50 51 51 50 51 49 51 52 52 50 49 48 47 47 48 48 48 49 50 50 50 50 50 48 49 49 50 50 49 50 48 48
44 44 45 45 45 45 45 44 44 45 45 46 47 48 48 48 48 48 48 48 46 46 46 46 46 46 46 47 46 46 48 49 50 55 52 52 51 52 51 50 50 50 54
42 42 44 44 44 44 43 43 43 43 44 44 45 45 45 45 45 46 47 46 44 44 46 46 46 44 44 46 48 46 47 50 51 51 51 51 50 49 48 49 50 48 46
40 41 44 44 43 43 43 42 43 44 43 43 43 43 44 42 43 44 45 44 42 42 43 43 45 44 43 44 46 50 50 50 51 52 50 48 46 49 48 46 50 47 47
41 42 43 43 43 43 43 43 43 43 43 42 42 42 42 43 42 43 43 43 42 41 42 42 42 43 43 44 46 50 50 46 51 53 54 53 51 50 52 53 54 51 48
41 41 42 42 43 42 42 42 43 42 41 41 41 41 42 42 44 43 42 42 44 41 41 42 44 43 43 46 50 47 45 45 51 57 55 55 55 53 55 55 55 54 53
40 41 41 41 40 41 40 40 40 41 41 40 40 39 39 42 42 43 42 42 43 43 42 43 43 43 47 48 49 50 53 54 55 54 54 55 55 55 56 54 55 54 53
39 38 38 37 37 38 39 38 38 38 39 39 38 38 39 40 41 42 42 42 43 45 46 46 46 46 47 52 54 55 56 55 55 55 55 55 55 55 54 54 52 51 50
38 39 38 37 37 37 37 38 38 38 39 38 38 40 39 38 39 40 43 46 47 47 47 49 52 54 55 55 55 55 56 56 56 55 54 53 54 53 53 52 49 47 44
39 39 39 38 38 37 37 36 39 39 39 38 39 39 41 40 41 42 42 42 41 41 53 54 53 53 53 54 54 54 55 54 55 55 53 53 52 52 51 51 50 47 44
40 41 40 40 39 39 40 39 36 41 41 40 39 40 41 40 42 41 42 43 45 52 54 53 52 52 53 53 53 53 52 53 53 53 52 50 52 51 50 49 49 45 43
44 44 43 43 44 42 41 41 43 43 43 44 43 41 41 41 41 41 42 50 55 54 55 53 53 53 53 53 54 53 52 52 50 50 50 51 50 49 48 47 45 41 40
48 49 50 48 48 47 48 48 48 47 48 48 51 47 47 44 46 47 49 56 54 54 54 53 53 53 53 53 54 55 53 50 49 50 50 50 49 49 46 44 43 38 37
49 44 48 52 51 50 50 49 50 52 51 52 52 53 56 54 54 54 55 55 55 55 55 54 53 53 52 51 52 54 53 50 49 49 49 50 49 47 44 42 42 40 39
53 52 40 54 52 51 52 52 52 52 52 52 52 47 37 55 53 54 54 54 54 54 54 53 54 52 52 50 50 50 51 50 49 48 47 48 46 43 43 42 41 41 40
51 55 54 53 52 51 50 52 52 53 54 54 54 52 41 56 55 54 54 53 54 53 53 52 51 51 51 50 48 47 47 47 49 47 46 46 45 45 43 41 41 40 40
53 55 54 54 54 46 51 54 55 56 55 55 56 56 56 55 55 54 54 54 54 53 53 51 50 49 50 49 50 48 46 43 45 47 45 46 45 43 41 40 40 40 40
53 56 57 57 57 57 56 56 55 49 55 55 55 55 55 55 54 54 55 55 54 53 52 51 50 49 48 48 48 48 44 38 46 45 50 46 43 41 41 41 41 42 40
57 55 54 54 56 56 57 56 56 56 56 56 56 55 56 55 55 55 54 54 53 51 50 49 49 49 48 47 45 43 36 34 41 39 47 45 42 41 41 42 42 40 39
59 58 58 57 56 56 56 55 55 55 55 55 55 55 55 55 55 55 55 53 52 51 50 48 47 46 46 45 41 37 35 35 39 37 45 43 41 39 41 41 39 39 38
MSLP
1009.24 1009.28 1009.10 1008.66 1008.26 1007.87 1007.38 1006.79 1006.16 1005.52 1004.96 1004.43 1004.00 1003.48 1003.18 1002.87 1002.46 1002.15 1001.72 1001.32 1001.07 1001.00 1000.81 1000.87 1000.84 1001.10 1001.50 1001.87 1002.85 1003.58 1004.12 1004.63 1005.60 1006.74 1007.01 1007.29 1007.45 1008.57 1008.74 1008.87 1008.84 1008.96 1008.71
1009.66 1009.54 1009.12 1008.54 1007.94 1007.32 1006.66 1006.04 1005.44 1004.76 1004.14 1003.62 1003.21 1002.80 1002.44 1002.15 1001.83 1001.38 1000.94 1000.63 1000.42 1000.30 1000.37 1000.32 1000.38 1001.02 1001.47 1002.35 1002.90 1003.75 1004.68 1005.20 1005.43 1006.64 1007.33 1007.60 1007.94 1007.81 1007.91 1008.04 1008.22 1007.78 1007.84
1009.83 1009.47 1008.94 1008.27 1007.58 1006.72 1005.88 1005.10 1004.38 1003.70 1002.98 1002.46 1002.13 1001.79 1001.56 1001.40 1001.15 1000.70 1000.31 1000.00 999.84 999.76 999.85 1000.14 1000.41 1001.36 1002.04 1002.70 1003.55 1004.73 1005.51 1005.84 1006.00 1006.49 1007.38 1007.72 1007.71 1007.96 1007.84 1007.65 1007.36 1007.05 1007.28
1009.96 1009.40 1008.70 1007.97 1007.16 1006.24 1005.28 1004.37 1003.42 1002.64 1001.84 1001.25 1000.92 1000.83 1000.71 1000.44 1000.26 999.88 999.62 999.60 999.61 999.86 999.97 1000.52 1001.32 1001.94 1002.47 1003.08 1004.36 1005.22 1005.81 1006.15 1006.60 1007.09 1007.58 1007.98 1008.07 1008.22 1007.99 1008.18 1007.33 1007.17 1007.34
1010.03 1009.32 1008.56 1007.69 1006.77 1005.70 1004.62 1003.51 1002.58 1001.74 1000.51 999.33 999.56 999.83 999.76 999.49 999.18 998.95 999.24 999.28 1000.09 1000.89 1001.27 1002.22 1002.64 1003.01 1003.33 1004.30 1005.26 1005.98 1006.28 1006.77 1007.28 1007.96 1008.12 1008.64 1008.38 1008.37 1008.58 1008.11 1008.05 1007.56 1007.54
1010.04 1009.31 1008.44 1007.44 1006.40 1005.38 1004.26 1003.24 1002.39 1001.38 1000.02 998.55 998.80 999.12 998.94 998.60 998.33 998.86 999.24 999.92 1001.02 1001.85 1002.19 1003.42 1003.99 1004.50 1005.22 1005.98 1006.55 1006.83 1006.98 1007.56 1007.97 1008.56 1008.40 1008.76 1008.62 1008.78 1008.82 1008.44 1008.56 1008.30 1008.17
1010.16 1009.25 1008.29 1007.31 1006.34 1005.34 1004.27 1003.48 1002.60 1001.78 1000.83 999.71 999.09 999.15 999.36 999.29 999.16 999.71 1000.08 1001.00 1002.10 1003.11 1003.68 1004.53 1005.20 1006.04 1006.52 1007.03 1007.46 1007.59 1007.84 1008.23 1008.52 1008.81 1008.83 1008.92 1009.05 1009.23 1009.05 1008.72 1008.50 1008.48 1008.35
1010.20 1009.44 1008.41 1007.42 1006.56 1005.59 1004.90 1004.17 1003.39 1002.60 1001.96 1001.24 1000.63 1000.58 1000.44 1001.20 1001.12 1000.68 1001.40 1002.43 1003.40 1004.32 1005.11 1005.72 1006.19 1007.11 1007.76 1008.16 1008.45 1008.58 1009.24 1009.24 1008.84 1008.92 1008.93 1009.07 1009.13 1009.09 1008.96 1008.82 1008.68 1008.46 1008.09
1010.61 1009.76 1008.70 1007.81 1006.96 1006.33 1005.57 1004.99 1004.46 1003.84 1003.17 1002.73 1002.44 1002.30 1002.46 1002.92 1002.83 1002.69 1002.20 1003.53 1004.66 1005.64 1006.41 1006.85 1007.37 1008.06 1008.70 1009.01 1008.73 1009.16 1009.24 1009.33 1009.27 1009.09 1008.97 1008.97 1009.04 1009.02 1009.00 1008.78 1008.74 1008.74 1008.47
1011.08 1010.19 1009.26 1008.34 1007.67 1007.11 1006.54 1005.92 1005.55 1005.17 1004.49 1004.44 1004.10 1004.09 1004.44 1004.28 1004.46 1004.25 1004.26 1005.03 1005.87 1006.90 1007.67 1008.15 1008.49 1008.88 1009.07 1009.09 1009.36 1009.04 1008.96 1009.22 1009.10 1009.09 1009.05 1009.16 1009.31 1009.18 1009.06 1009.16 1009.10 1009.25 1008.90
1011.68 1010.76 1009.82 1009.11 1008.44 1008.02 1007.56 1006.93 1006.77 1006.52 1005.94 1006.04 1005.69 1006.01 1006.14 1006.24 1006.28 1006.10 1006.36 1006.64 1007.35 1008.04 1008.75 1009.36 1009.55 1009.47 1009.02 1009.39 1009.06 1008.87 1009.04 1009.14 1008.71 1008.62 1008.62 1008.70 1009.09 1009.01 1008.80 1008.91 1008.96 1009.12 1009.09
1012.12 1011.38 1010.78 1010.00 1009.53 1008.99 1008.60 1008.16 1008.07 1007.89 1007.60 1007.58 1007.57 1007.54 1007.80 1008.03 1007.94 1007.95 1008.02 1008.46 1008.93 1009.10 1009.72 1009.95 1009.84 1010.00 1009.04 1008.71 1008.98 1009.20 1009.00 1008.97 1008.87 1008.21 1008.33 1008.53 1008.68 1008.65 1008.63 1008.56 1008.58 1008.52 1008.50
1012.60 1012.03 1011.75 1011.32 1010.74 1010.37 1009.94 1009.68 1009.47 1009.27 1009.19 1009.14 1009.25 1009.27 1009.44 1009.75 1009.77 1009.68 1009.71 1009.72 1009.89 1010.15 1010.20 1010.52 1010.30 1009.67 1009.20 1009.30 1009.13 1008.94 1008.66 1008.60 1008.55 1008.58 1008.67 1008.67 1008.54 1008.58 1008.84 1008.87 1008.93 1008.80 1008.77
1013.38 1013.17 1012.90 1012.49 1012.24 1011.62 1011.50 1011.34 1011.02 1010.98 1010.89 1010.92 1010.96 1011.09 1011.16 1011.15 1011.19 1011.18 1011.15 1011.06 1010.95 1011.08 1010.81 1010.55 1010.28 1010.08 1009.84 1009.61 1009.51 1009.42 1009.32 1009.14 1009.05 1009.01 1008.96 1008.85 1008.95 1009.19 1009.25 1009.27 1009.54 1009.75 1009.44
1014.15 1013.99 1013.86 1013.74 1013.48 1013.21 1013.06 1012.94 1012.73 1012.94 1012.67 1012.43 1012.62 1012.46 1012.26 1012.18 1012.19 1011.75 1011.52 1011.39 1011.11 1010.80 1010.70 1010.61 1010.26 1010.04 1010.06 1010.07 1010.17 1010.12 1009.98 1009.71 1009.58 1009.62 1009.66 1009.70 1009.72 1009.82 1009.76 1009.73 1010.14 1010.06 1010.06
1014.98 1014.88 1014.73 1014.72 1014.69 1014.55 1014.42 1014.44 1014.30 1014.14 1013.87 1013.75 1013.54 1013.17 1012.97 1012.65 1012.30 1011.98 1011.72 1011.31 1010.97 1010.80 1010.72 1010.81 1010.89 1010.90 1010.83 1010.80 1010.86 1010.85 1010.83 1010.64 1010.33 1010.35 1010.46 1010.42 1010.38 1010.33 1010.22 1010.15 1010.18 1010.31 1010.35
1015.80 1015.71 1015.62 1015.61 1015.58 1015.58 1015.54 1015.48 1015.45 1015.41 1014.98 1014.51 1014.20 1013.83 1013.47 1013.07 1012.57 1012.03 1011.74 1011.33 1011.13 1011.12 1011.36 1011.64 1011.57 1011.52 1011.46 1011.50 1011.60 1011.64 1011.63 1011.50 1011.36 1011.27 1011.33 1011.30 1011.00 1010.69 1010.64 1010.61 1010.56 1010.67 1010.64
1016.52 1016.51 1016.48 1016.38 1016.51 1016.53 1016.36 1016.13 1015.83 1015.48 1015.33 1015.10 1014.70 1014.30 1013.83 1013.48 1013.14 1012.76 1012.44 1012.33 1012.34 1012.34 1012.30 1012.39 1012.47 1012.38 1012.39 1012.19 1012.06 1012.11 1012.36 1012.42 1012.30 1012.17 1011.84 1011.53 1011.30 1011.18 1011.18 1011.25 1011.18 1011.15 1011.22
1016.74 1016.63 1016.63 1016.72 1016.70 1016.64 1016.45 1016.29 1016.08 1015.77 1015.45 1015.11 1014.62 1014.22 1013.98 1013.72 1013.48 1013.34 1013.23 1013.10 1013.14 1013.27 1013.40 1013.47 1013.56 1013.48 1013.26 1012.99 1012.67 1012.54 1012.80 1013.10 1013.06 1012.65 1012.22 1012.02 1011.95 1011.87 1011.90 1011.87 1011.66 1011.63 1011.67
1017.04 1016.81 1016.46 1016.36 1016.40 1016.49 1016.44 1016.28 1015.99 1015.79 1015.48 1015.30 1015.12 1014.89 1014.77 1014.63 1014.53 1014.41 1014.29 1014.17 1014.14 1014.19 1014.27 1014.30 1014.37 1014.48 1014.46 1014.16 1013.73 1013.36 1013.36 1013.58 1013.33 1013.07 1012.91 1012.50 1012.41 1012.54 1012.50 1012.28 1012.06 1012.00 1011.98
1016.89 1016.81 1016.96 1016.53 1016.70 1016.78 1016.68 1016.61 1016.64 1016.42 1016.25 1016.13 1016.04 1016.06 1015.60 1015.52 1015.49 1015.46 1015.52 1015.49 1015.49 1015.50 1015.34 1015.43 1015.58 1015.58 1015.29 1015.30 1015.13 1014.65 1014.21 1014.11 1014.08 1013.77 1013.53 1013.21 1013.32 1013.19 1013.02 1012.78 1012.64 1012.45 1012.27
1017.10 1016.69 1016.92 1017.16 1017.38 1017.48 1017.40 1017.25 1017.09 1016.89 1016.65 1016.59 1016.66 1016.72 1016.48 1016.24 1016.27 1016.43 1016.54 1016.66 1016.83 1017.00 1017.04 1016.85 1016.75 1016.50 1016.35 1016.21 1016.16 1015.83 1015.54 1015.29 1014.67 1014.34 1014.21 1013.92 1013.73 1013.40 1013.28 1013.20 1013.05 1012.77 1012.47
1017.45 1017.24 1017.36 1017.45 1017.57 1017.56 1017.50 1017.40 1017.26 1017.26 1017.28 1017.30 1017.35 1017.28 1017.22 1017.36 1017.53 1017.62 1017.65 1017.74 1017.84 1017.78 1017.88 1017.92 1017.79 1017.57 1017.28 1017.18 1016.82 1016.76 1016.65 1016.27 1015.55 1015.00 1014.60 1014.10 1014.04 1013.94 1013.97 1013.86 1013.48 1013.04 1012.68
1017.95 1017.44 1017.34 1017.35 1017.42 1017.68 1017.87 1017.94 1017.98 1018.02 1018.06 1018.10 1018.16 1018.26 1018.44 1018.48 1018.48 1018.54 1018.54 1018.64 1018.74 1018.74 1018.73 1018.68 1018.76 1018.63 1018.44 1018.17 1017.88 1017.34 1017.16 1016.86 1016.02 1015.46 1014.67 1014.82 1014.73 1014.76 1014.67 1014.31 1013.72 1013.30 1013.16
1018.16 1018.07 1018.22 1018.18 1018.24 1018.26 1018.34 1018.44 1018.62 1018.72 1018.76 1018.84 1019.00 1019.13 1019.26 1019.28 1019.24 1019.23 1019.31 1019.47 1019.58 1019.79 1020.06 1020.10 1019.86 1019.57 1019.39 1019.10 1018.51 1017.99 1017.74 1017.13 1016.56 1015.96 1015.75 1015.59 1015.64 1015.56 1015.28 1014.70 1014.22 1014.04 1013.73
1018.40 1018.40 1018.47 1018.52 1018.66 1018.86 1019.04 1019.25 1019.45 1019.56 1019.71 1019.85 1019.91 1020.03 1020.03 1020.02 1020.08 1020.13 1020.22 1020.44 1020.67 1020.93 1021.10 1021.14 1021.00 1020.79 1020.10 1019.54 1019.46 1019.00 1018.39 1017.79 1017.29 1016.95 1016.62 1016.64 1016.60 1016.44 1015.98 1015.57 1015.22 1014.80 1014.56
Wind_Speed
14 14 15 15 15 15 15 16 16 17 17 17 17 16 16 17 15 14 14 13 12 12 13 14 14 12 8 3 6 4 3 2 5 3 2 3 5 5 5 2 2 5 6
14 15 16 16 16 17 16 17 16 17 17 16 16 16 16 15 15 15 15 13 13 13 14 15 15 8 4 5 5 6 4 1 4 7 2 2 5 7 6 4 5 4 4
15 15 16 17 17 17 16 17 16 16 17 17 16 16 16 16 16 17 16 14 13 12 11 12 12 8 6 6 7 5 4 3 3 4 3 3 1 1 2 4 5 3 5
16 16 17 17 17 17 17 17 17 17 18 17 17 15 16 15 16 16 15 14 11 6 2 9 6 8 8 10 6 5 4 4 4 4 4 3 3 2 1 3 3 2 3
16 16 17 17 17 17 17 16 14 15 16 18 14 13 15 14 13 14 13 8 12 13 13 13 13 19 24 16 7 7 8 7 7 6 4 3 2 1 2 2 4 4 5
14 16 16 16 16 16 14 12 11 11 13 6 9 11 12 10 8 6 12 13 13 13 16 15 13 21 23 22 21 22 13 7 5 2 3 3 3 4 4 4 3 4 3
15 15 15 14 15 13 11 10 9 10 9 9 10 10 10 8 20 19 22 13 14 13 14 13 13 11 15 12 18 19 18 14 8 3 4 3 3 2 3 3 2 2 3
14 15 15 13 12 10 9 10 10 9 10 10 13 14 16 13 18 26 27 19 17 17 16 15 15 14 11 11 10 10 5 1 3 2 4 4 3 1 2 2 5 5 5
14 14 14 12 11 9 10 10 9 9 12 13 13 16 16 15 20 20 23 18 18 17 14 13 12 10 10 6 8 5 4 1 1 2 3 4 4 1 3 4 5 4 4
14 13 13 11 10 10 10 11 9 9 14 12 16 17 23 18 22 22 19 13 17 13 12 12 17 9 9 4 4 4 5 5 5 5 4 3 3 5 4 2 3 3 3
12 11 11 11 10 9 9 9 9 10 13 14 17 17 18 19 21 26 24 14 12 11 9 7 5 8 9 6 5 5 2 4 6 4 6 4 5 4 3 4 4 0 2
10 9 10 11 9 9 11 10 9 10 12 14 14 15 14 16 23 26 26 21 14 10 7 2 2 5 7 7 5 6 11 5 6 1 5 4 4 2 2 2 3 3 1
10 10 11 11 12 11 11 11 9 10 10 11 11 12 12 11 12 22 20 16 13 7 4 3 8 4 9 3 7 11 9 2 4 4 4 3 1 2 4 6 6 7 4
11 12 11 13 13 11 11 10 10 10 10 11 11 11 9 8 7 6 5 5 3 2 4 3 4 4 6 3 3 4 4 4 4 4 5 4 5 6 6 5 6 8 5
11 10 11 9 11 13 14 11 12 13 10 9 8 7 9 7 4 3 3 3 3 3 3 2 1 4 6 4 5 5 6 6 6 6 6 5 6 6 5 4 5 4 5
9 8 9 9 9 10 10 12 23 20 20 16 14 8 5 7 7 8 11 11 8 9 4 8 7 6 7 7 7 7 7 7 6 7 7 6 6 6 5 4 4 5 4
10 10 10 11 9 9 10 10 10 12 14 14 12 8 6 1 8 9 11 15 14 11 8 7 7 6 6 7 6 6 8 9 9 7 7 6 6 5 5 5 4 6 5
11 17 10 9 9 9 8 7 6 6 6 4 4 5 8 11 12 11 10 7 10 10 9 9 8 7 7 6 6 8 8 7 8 7 5 6 5 5 6 7 5 6 6
8 7 8 8 7 7 6 5 4 4 4 3 3 4 5 10 15 16 13 9 9 9 9 9 8 9 9 9 7 7 8 7 6 6 7 7 6 6 6 6 6 6 6
6 6 4 4 4 5 4 3 3 8 9 9 8 7 7 9 10 11 10 10 10 9 9 9 9 9 9 9 9 9 8 8 7 6 7 6 7 8 7 7 7 6 6
1 3 3 8 8 8 7 9 8 7 8 7 8 6 7 10 10 10 10 11 12 11 11 11 10 10 10 10 10 9 8 8 9 6 7 8 8 6 7 7 7 6 6
5 3 6 7 6 6 5 5 5 5 6 8 8 8 8 10 10 10 10 10 11 11 10 10 10 9 10 9 9 9 9 9 9 8 6 6 7 7 7 7 7 6 6
6 7 6 5 5 4 3 3 5 8 8 9 9 9 10 10 9 10 10 10 10 10 10 10 11 10 10 10 9 8 8 7 8 6 5 6 8 8 8 7 6 6 6
6 6 5 5 5 8 8 8 7 8 9 9 9 9 9 9 9 11 10 10 10 11 11 10 10 13 11 11 9 8 8 8 6 5 10 10 9 9 7 7 7 9 7
5 6 7 6 6 5 7 8 8 9 9 9 8 8 9 8 8 9 9 10 10 11 12 11 10 12 13 16 18 18 15 14 11 9 9 11 11 11 9 8 9 8 10
4 6 5 4 5 6 7 8 8 8 9 8 8 9 9 10 10 10 11 12 10 11 11 10 12 16 17 15 19 17 14 13 10 8 10 10 9 9 8 10 13 8 10
Wind_Direction
340 329 315 308 308 301 295 290 284 279 274 270 267 266 270 275 271 265 264 266 256 250 247 240 236 231 231 133 126 160 136 116 119 88 109 129 100 181 164 173 234 257 249
333 319 313 306 301 295 287 282 278 275 273 270 268 267 265 267 271 269 262 260 253 246 251 245 236 230 176 122 109 89 104 0 115 139 111 141 196 185 172 184 228 249 277
322 315 311 307 304 294 291 292 287 279 271 267 264 259 257 256 259 260 259 258 252 246 254 249 237 130 123 111 101 110 115 101 81 135 153 177 145 167 169 230 228 230 258
318 315 310 310 304 305 297 292 285 278 269 259 251 250 252 250 252 254 255 255 252 278 39 83 110 116 116 104 105 106 116 109 68 72 69 57 57 306 300 283 18 337 7
318 313 312 308 306 301 298 292 296 290 283 254 239 241 244 241 244 245 249 263 99 91 81 75 74 77 71 69 84 74 83 80 75 62 53 7 67 17 288 321 359 40 326
317 317 314 312 309 311 311 310 312 319 318 247 217 236 243 243 254 167 116 105 99 99 96 88 80 78 77 77 76 70 66 79 85 133 132 83 64 26 12 29 314 39 324
323 319 320 322 319 322 323 333 343 348 348 22 46 74 61 55 103 102 102 94 94 90 89 88 84 75 73 75 63 58 52 45 42 64 87 56 83 12 337 320 36 267 249
323 329 328 330 331 343 354 2 6 12 21 39 56 63 72 60 80 98 96 93 86 80 81 83 84 80 71 81 84 82 66 231 1 108 108 122 133 24 6 287 275 300 281
338 331 335 338 349 356 19 20 20 36 49 51 57 63 65 63 67 82 92 88 85 79 76 73 77 74 46 71 99 119 188 180 278 285 127 124 106 299 7 347 28 13 342
339 336 339 347 1 21 35 34 26 45 63 54 62 61 64 64 63 69 82 90 89 84 74 67 69 79 82 59 243 177 134 198 220 205 228 240 247 270 287 215 52 344 306
339 342 353 4 16 27 36 35 43 52 66 69 68 65 65 64 63 68 70 76 81 83 75 65 61 60 77 68 63 45 348 319 298 255 222 191 173 215 205 184 116 1 302
339 1 18 19 26 28 38 35 42 58 65 69 71 72 64 63 68 69 70 69 78 92 91 64 113 228 131 77 49 262 268 271 260 98 70 50 61 39 19 217 177 246 168
12 17 33 33 34 33 40 44 42 49 60 66 67 71 74 66 66 70 72 69 64 69 84 237 242 262 57 58 349 347 10 7 36 50 52 65 33 29 46 38 42 23 91
40 41 39 44 46 41 47 43 52 53 63 67 66 67 68 67 64 63 57 29 14 238 208 227 273 281 250 96 33 21 31 22 36 37 22 39 30 53 44 32 39 13 27
47 39 41 44 51 57 54 49 57 49 48 64 53 64 72 58 21 48 53 356 355 356 347 271 181 59 48 55 60 48 25 22 44 38 29 32 44 32 29 43 64 32 32
44 48 52 53 54 54 58 59 45 47 44 41 42 40 75 61 22 2 335 307 284 266 71 58 54 51 50 51 47 37 37 27 25 45 35 19 26 25 14 30 32 32 8
55 55 55 57 58 62 65 67 70 49 43 32 26 25 45 314 325 337 358 21 50 61 63 57 49 42 45 54 49 51 39 25 24 41 38 16 16 14 19 9 15 30 13
69 73 72 72 69 64 63 64 61 65 64 47 339 332 339 331 323 318 336 37 59 53 52 50 44 40 35 32 56 52 58 37 27 12 15 21 6 15 21 17 41 27 16
82 79 86 89 94 95 86 82 75 79 91 84 38 4 14 32 44 43 42 59 62 61 57 51 43 35 28 25 20 54 60 54 24 9 9 10 17 25 26 19 25 24 11
71 92 96 98 130 146 138 140 107 56 54 48 44 39 57 54 53 48 45 50 53 49 48 50 45 44 33 20 17 25 48 40 19 18 10 16 22 26 23 18 18 14 8
204 160 347 60 55 48 48 61 60 65 60 57 50 40 34 61 57 55 53 44 38 35 38 44 42 34 35 30 16 13 24 29 16 359 19 25 27 20 23 21 11 9 3
339 60 90 85 84 84 86 101 104 97 89 81 73 59 45 59 56 56 58 58 54 47 36 36 36 32 29 30 27 17 13 2 9 11 19 28 20 23 20 19 10 8 3
314 95 108 111 122 154 169 148 81 71 65 62 61 59 52 55 59 58 54 50 47 49 53 48 38 32 28 25 24 26 10 354 344 13 5 11 31 25 22 13 1 358 357
315 22 68 92 79 77 74 76 74 70 72 68 63 61 61 59 59 55 53 53 53 48 41 42 39 41 30 21 15 7 21 1 343 329 19 35 35 23 17 10 2 11 34
108 70 63 64 85 86 79 73 74 74 74 71 70 70 68 66 65 63 65 62 57 55 45 32 27 33 31 21 18 17 7 357 10 7 37 40 34 23 20 15 25 28 32
114 125 132 113 90 82 78 76 71 71 73 69 64 63 62 61 57 54 53 52 53 51 48 39 36 31 21 18 14 8 6 4 9 35 43 43 35 26 22 30 30 29 36